Regional Weather Roundup
Issued by NWS

Home | Current Version | Previous Version | Graphics & Text | Print | Product List | Glossary On
Versions: 1 2 3 4 5 6 7 8 9 10 11 12 13 14 15 16 17 18 19 20 21 22 23 24 25 26 27 28 29 30 31 32 33 34 35 36 37 38 39 40 41 42 43 44 45 46 47 48 49 50
000
ASUS43 KLMK 050910
RWRKY
KENTUCKY REGIONAL WEATHER ROUNDUP
NATIONAL WEATHER SERVICE LOUISVILLE KY
500 AM EDT SUN JUL 05 2015

NOTE "FAIR" INDICATES FEW OR NO CLOUDS BELOW 12,000 FEET
WITH NO SIGNIFICANT WEATHER AND/OR OBSTRUCTIONS TO VISIBILITY.

KYZ001>023-026-027-061>063-070>075-051000-
WESTERN AND SOUTH CENTRAL KENTUCKY

CITY           SKY/WX    TMP DP  RH WIND       PRES   REMARKS
PADUCAH        MOCLDY    67  65  93 CALM      30.03R FOG
HENDERSON      CLOUDY    70  64  83 CALM      30.01S
OWENSBORO      CLOUDY    71  70  97 CALM      30.02S FOG
HOPKINSVILLE   CLOUDY    71  70  97 W6        30.03R FOG
BOWLING GREEN  CLOUDY    71  68  90 SE6       30.02R
GLASGOW        CLOUDY    69  69 100 CALM      30.02S
$$

KYZ024-025-028>034-038-045-046-053-051000-
NORTH CENTRAL KENTUCKY

CITY           SKY/WX    TMP DP  RH WIND       PRES   REMARKS
LOUISVILLE/SDF CLOUDY    72  67  84 N3        30.02R HAZE
LOUISVILLE/LOU MOCLDY    71  67  87 CALM      30.04R FOG
FORT KNOX      MOCLDY    69  67  95 N5        30.01R FOG
$$

KYZ035>037-039>044-047>052-055>060-089>105-051000-
NORTHEAST KENTUCKY

CITY           SKY/WX    TMP DP  RH WIND       PRES   REMARKS
LEXINGTON      CLOUDY    69  65  86 NE3       30.04S
COVINGTON      CLOUDY    68  60  75 CALM      30.06S
FRANKFORT      CLOUDY    70  66  87 NE3       30.03S FOG
$$

KYZ054-064>069-076>088-106>120-051000-
SOUTHEAST KENTUCKY

CITY           SKY/WX    TMP DP  RH WIND       PRES   REMARKS
JACKSON        CLOUDY    69  67  93 CALM      30.06R FOG
LONDON         RAIN      67  63  87 SW3       30.06S FOG
SOMERSET       LGT RAIN  66  66 100 CALM      30.06S
MIDDLESBORO    LGT RAIN  67  67 100 CALM      30.07S
MONTICELLO     CLOUDY    68  68 100 CALM      30.07S FOG
$$



USA.gov is the U.S. government's official web portal to all federal, state and local government web resources and services.